This is the latest recevied weather packets stored in our database for station/object KG5APU. If no packets are shown the sender has not sent any weather packets the latest 10 day(s).
| Time | Temp. | Humidity | Pressure | Rain* | Wind** | Luminosity | Snow |
|---|---|---|---|---|---|---|---|
| 1777669947 | 17.78° C | 60% | 1016 hPa | 0 mm | - | 221 W/m² | - |
| 1777669346 | 17.78° C | 61% | 1016.5 hPa | 0 mm | - | 284 W/m² | - |
| 1777668745 | 17.78° C | 60% | 1016.7 hPa | 0 mm | - | 158 W/m² | - |
| 1777668145 | 17.78° C | 60% | 1016.3 hPa | 0 mm | - | 230 W/m² | - |
| 1777667545 | 17.78° C | 61% | 1017.1 hPa | 0 mm | - | 180 W/m² | - |
| 1777666944 | 17.78° C | 61% | 1017.2 hPa | 0 mm | - | 276 W/m² | - |
| 1777666343 | 17.78° C | 60% | 1017.2 hPa | 0 mm | - | 229 W/m² | - |
| 1777665743 | 17.78° C | 58% | 1016.5 hPa | 0 mm | - | 322 W/m² | - |
| 1777665142 | 17.78° C | 61% | 1016.6 hPa | 0 mm | - | 295 W/m² | - |
| 1777664540 | 18.33° C | 61% | 1016.6 hPa | 0 mm | - | 223 W/m² | - |
| 1777663936 | 17.78° C | 59% | 1016.5 hPa | 0 mm | - | 361 W/m² | - |
| 1777663336 | 17.78° C | 58% | 1015.9 hPa | 0 mm | - | 270 W/m² | - |
| 1777662730 | 18.33° C | 59% | 1016.6 hPa | 0 mm | - | 206 W/m² | - |
| 1777662128 | 18.33° C | 59% | 1016.2 hPa | 0 mm | - | 307 W/m² | - |
| 1777661526 | 18.33° C | 57% | 1016.3 hPa | 0 mm | - | 347 W/m² | - |
| 1777660922 | 18.33° C | 56% | 1016.4 hPa | 0 mm | - | 417 W/m² | - |
| 1777660322 | 18.89° C | 58% | 1016.9 hPa | 0 mm | - | 509 W/m² | - |
| 1777659721 | 19.44° C | 58% | 1016.9 hPa | 0 mm | - | 876 W/m² | - |
| 1777659121 | 18.89° C | 56% | 1017.2 hPa | 0 mm | - | 880 W/m² | - |
| 1777658520 | 18.89° C | 61% | 1017.5 hPa | 0 mm | - | 863 W/m² | - |
| 1777657920 | 18.89° C | 59% | 1017.5 hPa | 0 mm | - | 589 W/m² | - |
| 1777657320 | 18.33° C | 61% | 1017.8 hPa | 0 mm | - | 989 W/m² | - |
| 1777656721 | 18.33° C | 63% | 1018 hPa | 0 mm | - | 1071 W/m² | - |
| 1777656117 | 18.33° C | 68% | 1018 hPa | 0 mm | - | 1000 W/m² | - |
| 1777655516 | 17.78° C | 68% | 1017.9 hPa | 0 mm | - | 469 W/m² | - |
* Rain latest hour (hover to see other rain measurements)
** Current wind speed in m/s (hover to see current wind gust speed)